GW4642 Weather Reports


time (UTC)temp
F
wind
direction
speed
knots
gust
knots
rain 1hr
in
rain 24hr
in
rain mn
in
humidity
%
barometer
mb
20260504205103 80 205 4.3 13.0 0.00 0.00 0.00 42 1009.5
20260504204601 81 208 1.7 4.3 0.00 0.00 0.00 41 1009.6
20260504204100 81 249 1.7 4.3 0.00 0.00 0.00 41 1009.6
20260504203558 80 337 1.7 7.8 0.00 0.00 0.00 42 1009.7
20260504203055 79 262 4.3 9.6 0.00 0.00 0.00 41 1009.9
20260504202550 80 228 7.0 11.3 0.00 0.00 0.00 42 1010.0
20260504202048 80 216 5.2 11.3 0.00 0.00 0.00 41 1009.9
20260504201545 80 203 3.5 8.7 0.00 0.00 0.00 40 1009.8
20260504201043 79 216 7.8 15.6 0.00 0.00 0.00 42 1010.2
20260504200538 80 134 8.7 13.0 0.00 0.00 0.00 41 1010.3
20260504200036 79 17 1.7 16.5 0.00 0.00 0.00 42 1010.1
20260504195532 79 240 2.6 13.0 0.00 0.00 0.00 40 1010.3
20260504195028 80 45 3.5 7.0 0.00 0.00 0.00 40 1010.2
20260504194525 79 240 7.0 12.2 0.00 0.00 0.00 40 1010.3
20260504194020 80 253 2.6 7.8 0.00 0.00 0.00 42 1010.5
20260504193517 79 94 3.5 13.0 0.00 0.00 0.00 41 1010.5
20260504193016 80 15 3.5 8.7 0.00 0.00 0.00 41 1010.7
20260504192514 79 254 3.5 8.7 0.00 0.00 0.00 42 1010.6
20260504192012 80 248 8.7 10.4 0.00 0.00 0.00 41 1010.6
20260504191509 81 224 6.1 7.0 0.00 0.00 0.00 40 1010.7
20260504191005 80 10 3.5 12.2 0.00 0.00 0.00 41 1010.8
20260504190501 80 185 2.6 7.0 0.00 0.00 0.00 43 1010.8
20260504185957 80 225 4.3 11.3 0.00 0.00 0.00 42 1011.0
20260504185455 79 317 1.7 13.9 0.00 0.00 0.00 43 1011.0
20260504184951 80 308 3.5 17.4 0.00 0.00 0.00 42 1011.3
20260504184447 80 309 2.6 7.8 0.00 0.00 0.00 43 1011.3
20260504183942 80 266 2.6 5.2 0.00 0.00 0.00 45 1011.2
20260504183440 79 171 3.5 12.2 0.00 0.00 0.00 45 1011.3
20260504182938 80 323 2.6 8.7 0.00 0.00 0.00 43 1011.3
20260504182434 80 239 0.9 6.1 0.00 0.00 0.00 44 1011.2
20260504181932 80 198 1.7 8.7 0.00 0.00 0.00 44 1011.3
20260504181429 80 214 1.7 4.3 0.00 0.00 0.00 43 1011.3
20260504180927 79 184 6.1 11.3 0.00 0.00 0.00 45 1011.3
20260504180426 79 146 1.7 8.7 0.00 0.00 0.00 43 1011.4
20260504175924 79 231 11.3 12.2 0.00 0.00 0.00 43 1011.5
20260504175420 80 241 4.3 4.3 0.00 0.00 0.00 44 1011.6
20260504174918 79 264 4.3 9.6 0.00 0.00 0.00 46 1011.6
20260504174415 80 323 1.7 4.3 0.00 0.00 0.00 47 1011.7
20260504173913 79 7 1.7 7.0 0.00 0.00 0.00 44 1011.7
20260504173409 78 229 3.5 7.8 0.00 0.00 0.00 47 1011.9
20260504172907 78 219 9.6 12.2 0.00 0.00 0.00 47 1011.9
20260504172403 79 227 1.7 7.0 0.00 0.00 0.00 47 1011.8
20260504171859 80 24 2.6 4.3 0.00 0.00 0.00 46 1011.9
20260504171356 80 199 1.7 5.2 0.00 0.00 0.00 46 1011.8
20260504170853 78 13 2.6 5.2 0.00 0.00 0.00 48 1012.0
20260504170350 78 336 0.0 5.2 0.00 0.00 0.00 47 1012.1
20260504160308 76 279 2.6 6.1 0.00 0.00 0.00 52 1012.7
20260504150733 72 220 2.6 3.5 0.00 0.00 0.00 56 1013.2
20260504150230 72 40 1.7 8.7 0.00 0.00 0.00 58 1013.2
20260504141159 70 244 1.7 7.0 0.00 0.00 0.00 61 1013.0
20260504140656 69 193 1.7 5.2 0.00 0.00 0.00 62 1013.3
20260504140152 69 239 1.7 5.2 0.00 0.00 0.00 63 1013.3
20260504130620 63 206 1.7 6.1 0.00 0.00 0.00 68 1013.2
20260504130117 63 219 3.5 5.2 0.00 0.00 0.00 68 1013.3
20260504110508 57 149 1.7 2.6 0.00 0.00 0.00 73 1012.6
20260504100430 58 193 2.6 2.6 0.00 0.00 0.00 68 1012.7
20260504081823 58 195 2.6 5.2 0.00 0.00 0.00 63 1012.9
20260504081320 58 220 1.7 5.2 0.00 0.00 0.00 63 1012.9
20260504080816 57 274 1.7 1.7 0.00 0.00 0.00 64 1012.9
20260504080313 57 229 1.7 3.5 0.00 0.00 0.00 64 1013.0
20260504070240 57 153 0.0 3.5 0.00 0.00 0.00 63 1013.5
20260504060201 57 145 0.0 1.7 0.00 0.00 0.00 63 1014.2
20260504050629 55 99 0.9 1.7 0.00 0.00 0.00 65 1014.3
20260504050126 56 77 0.0 1.7 0.00 0.00 0.00 64 1014.4
20260504045623 56 79 0.9 1.7 0.00 0.00 0.00 64 1014.3
20260504045118 56 66 0.9 1.7 0.00 0.00 0.00 63 1014.3
20260504044616 56 114 0.9 1.7 0.00 0.00 0.00 62 1014.6
20260504044113 56 176 0.9 1.7 0.00 0.00 0.00 62 1014.4
20260504043610 56 99 2.6 2.6 0.00 0.00 0.00 62 1014.5
20260504043107 56 146 1.7 2.6 0.00 0.00 0.00 63 1014.6
20260504042604 56 180 0.0 2.6 0.00 0.00 0.00 62 1014.5
20260504042101 56 122 1.7 1.7 0.00 0.00 0.00 62 1014.8
20260504041556 56 120 0.9 1.7 0.00 0.00 0.00 62 1014.6
20260504041053 57 99 0.9 1.7 0.00 0.00 0.00 62 1014.6
20260504040550 57 119 1.7 1.7 0.00 0.00 0.00 61 1014.6
20260504040047 57 106 0.0 1.7 0.00 0.00 0.00 62 1014.8
20260504035544 56 162 1.7 1.7 0.00 0.00 0.00 62 1014.8
20260504035040 56 115 0.9 1.7 0.00 0.00 0.00 62 1014.9
20260504034538 56 121 2.6 2.6 0.00 0.00 0.00 63 1014.8
20260504034035 56 50 0.0 0.9 0.00 0.00 0.00 63 1014.9
20260504033533 56 44 0.0 0.9 0.00 0.00 0.00 63 1015.0
20260504033030 55 180 0.0 0.9 0.00 0.00 0.00 65 1015.0
20260504032527 56 60 0.0 0.9 0.00 0.00 0.00 63 1015.1
20260504032023 56 322 0.0 1.7 0.00 0.00 0.00 62 1015.1
20260504031521 56 103 0.0 0.9 0.00 0.00 0.00 63 1015.1
20260504031016 57 180 0.0 1.7 0.00 0.00 0.00 62 1015.3
20260504030514 57 148 0.0 1.7 0.00 0.00 0.00 61 1015.0
20260504030010 57 147 0.0 1.7 0.00 0.00 0.00 61 1015.3
20260504025507 56 50 0.9 0.9 0.00 0.00 0.00 62 1015.0
20260504025004 57 315 0.0 1.7 0.00 0.00 0.00 62 1015.0
20260504024501 57 38 0.0 0.9 0.00 0.00 0.00 61 1014.9
20260504023958 57 66 0.0 0.9 0.00 0.00 0.00 61 1014.9
20260504023455 58 142 0.0 0.9 0.00 0.00 0.00 60 1014.8
20260504022950 58 145 0.0 0.9 0.00 0.00 0.00 59 1014.8
20260504022446 59 215 0.9 1.7 0.00 0.00 0.00 57 1014.8
20260504021943 59 124 0.9 1.7 0.00 0.00 0.00 56 1014.9
20260504021440 59 168 0.9 1.7 0.00 0.00 0.00 55 1014.9
20260504020938 60 145 1.7 1.7 0.00 0.00 0.00 54 1014.9
20260504020434 60 97 0.9 2.6 0.00 0.00 0.00 54 1014.8
20260504015931 60 162 1.7 4.3 0.00 0.00 0.00 53 1014.6
20260504015427 61 115 0.0 2.6 0.00 0.00 0.00 53 1014.6
20260504014923 61 245 0.0 2.6 0.00 0.00 0.00 53 1014.5
20260504014419 61 183 1.7 3.5 0.00 0.00 0.00 53 1014.3
20260504013916 61 151 0.9 3.5 0.00 0.00 0.00 52 1014.4
20260504013415 61 167 1.7 2.6 0.00 0.00 0.00 52 1014.5
20260504012910 61 142 0.0 0.9 0.00 0.00 0.00 52 1014.4
20260504012409 62 163 1.7 3.5 0.00 0.00 0.00 51 1014.5
20260504011905 62 118 0.9 1.7 0.00 0.00 0.00 51 1014.6
20260504011403 62 144 1.7 1.7 0.00 0.00 0.00 50 1014.6
20260504010858 62 166 0.0 1.7 0.00 0.00 0.00 50 1014.7
20260504010354 63 141 1.7 2.6 0.00 0.00 0.00 49 1014.8
20260504005851 63 189 0.9 1.7 0.00 0.00 0.00 48 1014.7
20260504005347 63 147 0.0 0.9 0.00 0.00 0.00 48 1014.7
20260504004845 64 153 0.9 2.6 0.00 0.00 0.00 46 1014.6
20260504004343 64 170 0.0 2.6 0.00 0.00 0.00 46 1014.7
20260504003839 65 240 0.0 2.6 0.00 0.00 0.00 45 1014.7
20260504003336 65 206 0.0 1.7 0.00 0.00 0.00 45 1014.7
20260504002832 65 80 0.0 3.5 0.00 0.00 0.00 45 1014.7
20260504002329 65 197 0.9 1.7 0.00 0.00 0.00 45 1014.9
20260504001827 66 151 0.0 1.7 0.00 0.00 0.00 44 1015.0
20260504001324 66 160 0.0 3.5 0.00 0.00 0.00 44 1015.0
20260504000821 66 44 0.0 1.7 0.00 0.00 0.00 44 1015.1
20260504000318 66 202 0.9 4.3 0.00 0.00 0.00 43 1015.0
20260503235816 67 234 0.9 1.7 0.00 0.00 0.00 43 1015.0
20260503235313 67 197 2.6 2.6 0.00 0.00 0.00 42 1015.1
20260503234810 67 183 2.6 3.5 0.00 0.00 0.00 41 1015.1
20260503234308 67 347 0.9 3.5 0.00 0.00 0.00 42 1015.3
20260503233806 67 213 2.6 5.2 0.00 0.00 0.00 41 1015.3
20260503233301 68 188 0.0 3.5 0.00 0.00 0.00 43 1015.4
20260503232758 68 352 0.9 3.5 0.00 0.00 0.00 41 1015.6
20260503232256 68 295 0.9 4.3 0.00 0.00 0.00 41 1015.5
20260503231754 68 95 1.7 5.2 0.00 0.00 0.00 40 1015.6
20260503231250 68 196 3.5 4.3 0.00 0.00 0.00 42 1015.7
20260503230746 68 274 1.7 3.5 0.00 0.00 0.00 41 1015.7
20260503230243 68 155 0.9 3.5 0.00 0.00 0.00 41 1015.6
20260503225736 68 208 1.7 3.5 0.00 0.00 0.00 42 1015.7
20260503225236 68 174 0.0 3.5 0.00 0.00 0.00 40 1015.9
20260503224733 68 218 0.0 7.8 0.00 0.00 0.00 40 1015.8
20260503224231 68 180 2.6 5.2 0.00 0.00 0.00 40 1015.7
20260503223728 68 206 3.5 7.0 0.00 0.00 0.00 39 1015.6
20260503223225 69 349 1.7 5.2 0.00 0.00 0.00 40 1015.7
20260503222721 69 185 5.2 6.1 0.00 0.00 0.00 39 1015.8
20260503222219 69 142 0.0 3.5 0.00 0.00 0.00 41 1015.8
20260503221718 71 220 3.5 5.2 0.00 0.00 0.00 38 1016.0
20260503221215 71 194 0.0 2.6 0.00 0.00 0.00 38 1016.0
20260503220711 71 239 4.3 6.1 0.00 0.00 0.00 37 1016.0
20260503220207 70 0 1.7 3.5 0.00 0.00 0.00 39 1016.1
20260503215704 70 331 1.7 7.0 0.00 0.00 0.00 38 1016.1
20260503215201 72 346 0.0 2.6 0.00 0.00 0.00 38 1016.1
20260503214700 72 311 1.7 1.7 0.00 0.00 0.00 36 1016.4
20260503214155 71 221 3.5 7.0 0.00 0.00 0.00 38 1016.4
20260503213649 72 283 0.0 3.5 0.00 0.00 0.00 35 1016.6
20260503213145 72 188 0.0 4.3 0.00 0.00 0.00 38 1016.5
20260503212643 72 255 1.7 3.5 0.00 0.00 0.00 37 1016.6
20260503212140 72 122 0.9 2.6 0.00 0.00 0.00 37 1016.8
20260503211638 71 30 0.0 5.2 0.00 0.00 0.00 38 1016.7
20260503211132 72 269 0.9 2.6 0.00 0.00 0.00 38 1017.0
20260503210629 71 306 0.9 5.2 0.00 0.00 0.00 37 1017.0
20260503210126 70 205 3.5 8.7 0.00 0.00 0.00 38 1017.1
20260503205622 70 236 0.9 4.3 0.00 0.00 0.00 39 1017.3